| time (UTC) | temp F | wind direction | speed knots | gust knots | rain 1hr in | rain 24hr in | rain mn in | humidity % | barometer mb |
| 20260505130240 | 69 | 116 | 1.7 | 1.7 | 0.00 | 0.00 | 0.00 | 71 | 1021.1 |
| 20260505124731 | 68 | 59 | 0.9 | 0.9 | 0.00 | 0.00 | 0.00 | 73 | 1021.3 |
| 20260505124227 | 68 | 85 | 0.9 | 1.7 | 0.00 | 0.00 | 0.00 | 73 | 1021.3 |
| 20260505123722 | 67 | 129 | 1.7 | 2.6 | 0.00 | 0.00 | 0.00 | 73 | 1021.2 |
| 20260505123220 | 67 | 103 | 1.7 | 1.7 | 0.00 | 0.00 | 0.00 | 74 | 1021.2 |
| 20260505122716 | 66 | 97 | 0.9 | 1.7 | 0.00 | 0.00 | 0.00 | 76 | 1021.2 |
| 20260505122214 | 66 | 59 | 0.9 | 0.9 | 0.00 | 0.00 | 0.00 | 76 | 1021.3 |
| 20260505121710 | 66 | 80 | 1.7 | 1.7 | 0.00 | 0.00 | 0.00 | 76 | 1021.2 |
| 20260505121207 | 65 | 121 | 0.9 | 1.7 | 0.00 | 0.00 | 0.00 | 77 | 1021.1 |
| 20260505120703 | 64 | 72 | 0.9 | 1.7 | 0.00 | 0.00 | 0.00 | 80 | 1021.1 |
| 20260505120159 | 64 | 87 | 0.9 | 1.7 | 0.00 | 0.00 | 0.00 | 81 | 1021.0 |
| 20260505115652 | 63 | 90 | 0.9 | 1.7 | 0.00 | 0.00 | 0.00 | 81 | 1021.0 |
| 20260505115151 | 63 | 98 | 1.7 | 1.7 | 0.00 | 0.00 | 0.00 | 81 | 1021.2 |
| 20260505114648 | 63 | 126 | 0.9 | 0.9 | 0.00 | 0.00 | 0.00 | 82 | 1020.9 |
| 20260505114144 | 62 | 49 | 0.9 | 0.9 | 0.00 | 0.00 | 0.00 | 82 | 1020.9 |
| 20260505113640 | 62 | 83 | 1.7 | 1.7 | 0.00 | 0.00 | 0.00 | 82 | 1020.9 |
| 20260505113137 | 62 | 85 | 0.9 | 0.9 | 0.00 | 0.00 | 0.00 | 83 | 1020.9 |
| 20260505112634 | 62 | 114 | 0.9 | 0.9 | 0.00 | 0.00 | 0.00 | 83 | 1021.2 |
| 20260505112132 | 62 | 128 | 1.7 | 1.7 | 0.00 | 0.00 | 0.00 | 83 | 1020.9 |
| 20260505111631 | 62 | 105 | 1.7 | 1.7 | 0.00 | 0.00 | 0.00 | 84 | 1021.0 |
| 20260505111127 | 61 | 108 | 1.7 | 2.6 | 0.00 | 0.00 | 0.00 | 83 | 1021.0 |
| 20260505110623 | 61 | 96 | 2.6 | 3.5 | 0.00 | 0.00 | 0.00 | 84 | 1021.0 |
| 20260505110121 | 61 | 87 | 2.6 | 2.6 | 0.00 | 0.00 | 0.00 | 84 | 1020.8 |
| 20260505102056 | 61 | 88 | 0.0 | 0.9 | 0.00 | 0.00 | 0.00 | 84 | 1020.4 |
| 20260505101555 | 61 | 60 | 2.6 | 2.6 | 0.00 | 0.00 | 0.00 | 84 | 1020.3 |
| 20260505101051 | 61 | 75 | 0.0 | 0.9 | 0.00 | 0.00 | 0.00 | 84 | 1020.2 |
| 20260505100547 | 61 | 46 | 0.9 | 1.7 | 0.00 | 0.00 | 0.00 | 83 | 1020.0 |
| 20260505100044 | 61 | 97 | 0.9 | 1.7 | 0.00 | 0.00 | 0.00 | 84 | 1020.0 |
| 20260505095540 | 61 | 54 | 0.9 | 0.9 | 0.00 | 0.00 | 0.00 | 84 | 1020.1 |
| 20260505095037 | 61 | 46 | 1.7 | 3.5 | 0.00 | 0.00 | 0.00 | 83 | 1020.0 |
| 20260505094533 | 61 | 83 | 0.9 | 1.7 | 0.00 | 0.00 | 0.00 | 83 | 1020.0 |
| 20260505094030 | 61 | 76 | 1.7 | 1.7 | 0.00 | 0.00 | 0.00 | 83 | 1020.0 |
| 20260505093526 | 61 | 87 | 1.7 | 3.5 | 0.00 | 0.00 | 0.00 | 83 | 1019.8 |
| 20260505093024 | 61 | 87 | 2.6 | 3.5 | 0.00 | 0.00 | 0.00 | 82 | 1020.1 |
| 20260505092521 | 61 | 101 | 2.6 | 3.5 | 0.00 | 0.00 | 0.00 | 83 | 1019.8 |
| 20260505092019 | 61 | 107 | 1.7 | 1.7 | 0.00 | 0.00 | 0.00 | 83 | 1019.7 |
| 20260505091516 | 61 | 90 | 3.5 | 3.5 | 0.00 | 0.00 | 0.00 | 81 | 1019.7 |
| 20260505091014 | 61 | 106 | 3.5 | 3.5 | 0.00 | 0.00 | 0.00 | 81 | 1019.8 |
| 20260505090512 | 61 | 56 | 0.9 | 1.7 | 0.00 | 0.00 | 0.00 | 83 | 1019.7 |
| 20260505090009 | 61 | 63 | 1.7 | 2.6 | 0.00 | 0.00 | 0.00 | 82 | 1019.7 |
| 20260505085507 | 61 | 89 | 2.6 | 2.6 | 0.00 | 0.00 | 0.00 | 82 | 1019.7 |
| 20260505085005 | 61 | 85 | 2.6 | 2.6 | 0.00 | 0.00 | 0.00 | 81 | 1019.8 |
| 20260505084503 | 61 | 92 | 1.7 | 2.6 | 0.00 | 0.00 | 0.00 | 82 | 1019.6 |
| 20260505084001 | 61 | 88 | 1.7 | 1.7 | 0.00 | 0.00 | 0.00 | 82 | 1019.5 |
| 20260505083458 | 61 | 82 | 1.7 | 2.6 | 0.00 | 0.00 | 0.00 | 81 | 1019.5 |
| 20260505082954 | 61 | 70 | 0.9 | 2.6 | 0.00 | 0.00 | 0.00 | 82 | 1019.6 |
| 20260505082450 | 61 | 108 | 1.7 | 2.6 | 0.00 | 0.00 | 0.00 | 82 | 1019.6 |
| 20260505081947 | 61 | 78 | 1.7 | 3.5 | 0.00 | 0.00 | 0.00 | 81 | 1019.6 |
| 20260505081444 | 62 | 66 | 0.9 | 0.9 | 0.00 | 0.00 | 0.00 | 81 | 1019.4 |
| 20260505080940 | 61 | 97 | 0.0 | 0.9 | 0.00 | 0.00 | 0.00 | 81 | 1019.4 |
| 20260505080436 | 62 | 63 | 0.0 | 0.9 | 0.00 | 0.00 | 0.00 | 80 | 1019.2 |
| 20260505075932 | 62 | 110 | 1.7 | 2.6 | 0.00 | 0.00 | 0.00 | 80 | 1019.4 |
| 20260505075429 | 62 | 76 | 0.9 | 1.7 | 0.00 | 0.00 | 0.00 | 80 | 1019.4 |
| 20260505074926 | 62 | 104 | 0.0 | 0.9 | 0.00 | 0.00 | 0.00 | 79 | 1019.4 |
| 20260505074424 | 62 | 43 | 0.9 | 1.7 | 0.00 | 0.00 | 0.00 | 79 | 1019.1 |
| 20260505073920 | 62 | 80 | 0.0 | 0.9 | 0.00 | 0.00 | 0.00 | 79 | 1019.3 |
| 20260505073418 | 62 | 86 | 1.7 | 2.6 | 0.00 | 0.00 | 0.00 | 80 | 1019.3 |
| 20260505072915 | 62 | 76 | 2.6 | 2.6 | 0.00 | 0.00 | 0.00 | 78 | 1019.3 |
| 20260505072411 | 62 | 91 | 1.7 | 2.6 | 0.00 | 0.00 | 0.00 | 77 | 1019.2 |
| 20260505071908 | 63 | 63 | 1.7 | 3.5 | 0.00 | 0.00 | 0.00 | 78 | 1019.2 |
| 20260505071404 | 63 | 92 | 1.7 | 2.6 | 0.00 | 0.00 | 0.00 | 78 | 1019.1 |
| 20260505070902 | 63 | 95 | 2.6 | 2.6 | 0.00 | 0.00 | 0.00 | 78 | 1019.1 |
| 20260505070358 | 63 | 73 | 2.6 | 3.5 | 0.00 | 0.00 | 0.00 | 78 | 1019.1 |
| 20260505065853 | 63 | 70 | 2.6 | 3.5 | 0.00 | 0.00 | 0.00 | 77 | 1019.0 |
| 20260505065351 | 63 | 96 | 2.6 | 3.5 | 0.00 | 0.00 | 0.00 | 77 | 1019.2 |
| 20260505064848 | 63 | 101 | 1.7 | 2.6 | 0.00 | 0.00 | 0.00 | 77 | 1018.9 |
| 20260505064345 | 63 | 125 | 3.5 | 3.5 | 0.00 | 0.00 | 0.00 | 78 | 1019.0 |
| 20260505063843 | 63 | 103 | 2.6 | 2.6 | 0.00 | 0.00 | 0.00 | 77 | 1019.0 |
| 20260505063338 | 63 | 77 | 2.6 | 3.5 | 0.00 | 0.00 | 0.00 | 78 | 1019.0 |
| 20260505062835 | 63 | 104 | 3.5 | 3.5 | 0.00 | 0.00 | 0.00 | 77 | 1019.0 |
| 20260505062333 | 63 | 87 | 3.5 | 5.2 | 0.00 | 0.00 | 0.00 | 76 | 1019.2 |
| 20260505061829 | 63 | 91 | 3.5 | 3.5 | 0.00 | 0.00 | 0.00 | 77 | 1019.0 |
| 20260505061328 | 64 | 77 | 3.5 | 3.5 | 0.00 | 0.00 | 0.00 | 76 | 1019.0 |
| 20260505060825 | 64 | 103 | 1.7 | 1.7 | 0.00 | 0.00 | 0.00 | 76 | 1019.2 |
| 20260505060321 | 64 | 76 | 1.7 | 2.6 | 0.00 | 0.00 | 0.00 | 76 | 1019.4 |
| 20260505055817 | 64 | 118 | 3.5 | 3.5 | 0.00 | 0.00 | 0.00 | 74 | 1019.3 |
| 20260505055313 | 64 | 112 | 1.7 | 1.7 | 0.00 | 0.00 | 0.00 | 75 | 1019.2 |
| 20260505054811 | 64 | 99 | 3.5 | 3.5 | 0.00 | 0.00 | 0.00 | 75 | 1019.4 |
| 20260505054308 | 64 | 126 | 1.7 | 2.6 | 0.00 | 0.00 | 0.00 | 75 | 1019.5 |
| 20260505053806 | 64 | 79 | 2.6 | 2.6 | 0.00 | 0.00 | 0.00 | 75 | 1019.4 |
| 20260505053303 | 64 | 108 | 1.7 | 2.6 | 0.00 | 0.00 | 0.00 | 76 | 1019.4 |
| 20260505052800 | 64 | 85 | 1.7 | 2.6 | 0.00 | 0.00 | 0.00 | 75 | 1019.4 |
| 20260505052257 | 64 | 111 | 0.9 | 1.7 | 0.00 | 0.00 | 0.00 | 75 | 1019.4 |
| 20260505051754 | 64 | 90 | 0.9 | 0.9 | 0.00 | 0.00 | 0.00 | 76 | 1019.5 |
| 20260505051252 | 64 | 104 | 1.7 | 1.7 | 0.00 | 0.00 | 0.00 | 76 | 1019.5 |
| 20260505050749 | 65 | 104 | 1.7 | 1.7 | 0.00 | 0.00 | 0.00 | 77 | 1019.6 |
| 20260505050248 | 64 | 72 | 1.7 | 2.6 | 0.00 | 0.00 | 0.00 | 75 | 1019.5 |
| 20260505041717 | 65 | 128 | 1.7 | 1.7 | 0.00 | 0.00 | 0.00 | 74 | 1019.6 |
| 20260505041215 | 65 | 109 | 1.7 | 2.6 | 0.00 | 0.00 | 0.00 | 74 | 1019.4 |
| 20260505040712 | 65 | 123 | 1.7 | 2.6 | 0.00 | 0.00 | 0.00 | 73 | 1019.6 |
| 20260505040209 | 65 | 110 | 0.9 | 1.7 | 0.00 | 0.00 | 0.00 | 73 | 1019.6 |
| 20260505035706 | 65 | 90 | 1.7 | 1.7 | 0.00 | 0.00 | 0.00 | 73 | 1019.6 |
| 20260505035202 | 65 | 51 | 0.9 | 1.7 | 0.00 | 0.00 | 0.00 | 74 | 1019.7 |
| 20260505034658 | 65 | 150 | 1.7 | 2.6 | 0.00 | 0.00 | 0.00 | 73 | 1019.5 |
| 20260505034156 | 65 | 103 | 1.7 | 2.6 | 0.00 | 0.00 | 0.00 | 73 | 1019.6 |
| 20260505033651 | 65 | 118 | 1.7 | 2.6 | 0.00 | 0.00 | 0.00 | 73 | 1019.4 |
| 20260505033150 | 65 | 58 | 2.6 | 2.6 | 0.00 | 0.00 | 0.00 | 73 | 1019.4 |
| 20260505032648 | 66 | 92 | 1.7 | 1.7 | 0.00 | 0.00 | 0.00 | 74 | 1019.4 |
| 20260505032144 | 66 | 99 | 0.9 | 1.7 | 0.00 | 0.00 | 0.00 | 73 | 1019.4 |
| 20260505031642 | 66 | 89 | 1.7 | 2.6 | 0.00 | 0.00 | 0.00 | 73 | 1019.4 |
| 20260505031138 | 66 | 134 | 1.7 | 2.6 | 0.00 | 0.00 | 0.00 | 74 | 1019.4 |
| 20260505030635 | 66 | 5 | 1.7 | 1.7 | 0.00 | 0.00 | 0.00 | 73 | 1019.3 |
| 20260505030131 | 66 | 87 | 2.6 | 3.5 | 0.00 | 0.00 | 0.00 | 74 | 1019.3 |
| 20260505025627 | 66 | 131 | 1.7 | 2.6 | 0.00 | 0.00 | 0.00 | 74 | 1019.4 |
| 20260505025126 | 66 | 98 | 1.7 | 2.6 | 0.00 | 0.00 | 0.00 | 73 | 1019.5 |
| 20260505024623 | 66 | 82 | 4.3 | 6.1 | 0.00 | 0.00 | 0.00 | 73 | 1019.4 |
| 20260505024120 | 66 | 98 | 5.2 | 6.1 | 0.00 | 0.00 | 0.00 | 73 | 1019.4 |
| 20260505023617 | 66 | 103 | 3.5 | 5.2 | 0.00 | 0.00 | 0.00 | 72 | 1019.2 |
| 20260505023115 | 66 | 68 | 3.5 | 3.5 | 0.00 | 0.00 | 0.00 | 72 | 1019.3 |
| 20260505022612 | 66 | 105 | 3.5 | 3.5 | 0.00 | 0.00 | 0.00 | 74 | 1019.2 |
| 20260505022108 | 66 | 83 | 4.3 | 5.2 | 0.00 | 0.00 | 0.00 | 74 | 1019.6 |
| 20260505021605 | 66 | 72 | 3.5 | 5.2 | 0.00 | 0.00 | 0.00 | 73 | 1019.4 |
| 20260505021102 | 66 | 99 | 4.3 | 6.1 | 0.00 | 0.00 | 0.00 | 73 | 1019.4 |
| 20260505020602 | 66 | 70 | 1.7 | 3.5 | 0.00 | 0.00 | 0.00 | 73 | 1019.3 |
| 20260505020059 | 66 | 90 | 0.9 | 1.7 | 0.00 | 0.00 | 0.00 | 72 | 1019.3 |
| 20260505015556 | 67 | 72 | 0.9 | 1.7 | 0.00 | 0.00 | 0.00 | 73 | 1019.5 |
| 20260505015053 | 67 | 92 | 2.6 | 5.2 | 0.00 | 0.00 | 0.00 | 72 | 1019.4 |
| 20260505014549 | 67 | 71 | 1.7 | 3.5 | 0.00 | 0.00 | 0.00 | 72 | 1019.3 |
| 20260505014046 | 67 | 73 | 3.5 | 6.1 | 0.00 | 0.00 | 0.00 | 71 | 1019.2 |
| 20260505013543 | 67 | 76 | 0.9 | 1.7 | 0.00 | 0.00 | 0.00 | 74 | 1019.2 |
| 20260505013041 | 67 | 62 | 1.7 | 2.6 | 0.00 | 0.00 | 0.00 | 71 | 1019.0 |
| 20260505012539 | 67 | 73 | 3.5 | 6.1 | 0.00 | 0.00 | 0.00 | 72 | 1019.0 |
| 20260505012036 | 67 | 131 | 1.7 | 2.6 | 0.00 | 0.00 | 0.00 | 72 | 1018.9 |
| 20260505011537 | 67 | 108 | 4.3 | 6.1 | 0.00 | 0.00 | 0.00 | 71 | 1019.0 |
| 20260505011034 | 67 | 95 | 4.3 | 6.1 | 0.00 | 0.00 | 0.00 | 71 | 1018.8 |
| 20260505010529 | 68 | 84 | 5.2 | 7.0 | 0.00 | 0.00 | 0.00 | 70 | 1018.7 |
| 20260505010026 | 68 | 98 | 5.2 | 6.1 | 0.00 | 0.00 | 0.00 | 70 | 1018.4 |
| 20260505005522 | 68 | 87 | 4.3 | 5.2 | 0.00 | 0.00 | 0.00 | 70 | 1018.5 |
| 20260505005020 | 68 | 79 | 3.5 | 5.2 | 0.00 | 0.00 | 0.00 | 71 | 1018.5 |
| 20260505004517 | 68 | 89 | 4.3 | 5.2 | 0.00 | 0.00 | 0.00 | 70 | 1018.3 |
| 20260505004014 | 68 | 69 | 1.7 | 2.6 | 0.00 | 0.00 | 0.00 | 71 | 1018.4 |
| 20260505003511 | 68 | 75 | 2.6 | 3.5 | 0.00 | 0.00 | 0.00 | 71 | 1018.2 |
| 20260505003008 | 68 | 98 | 3.5 | 6.1 | 0.00 | 0.00 | 0.00 | 71 | 1018.2 |
| 20260505002503 | 68 | 70 | 3.5 | 5.2 | 0.00 | 0.00 | 0.00 | 71 | 1018.0 |
| 20260505002002 | 69 | 64 | 1.7 | 2.6 | 0.00 | 0.00 | 0.00 | 72 | 1018.3 |
| 20260505001459 | 69 | 94 | 1.7 | 5.2 | 0.00 | 0.00 | 0.00 | 71 | 1018.2 |
| 20260505000956 | 69 | 93 | 2.6 | 3.5 | 0.00 | 0.00 | 0.00 | 69 | 1018.0 |
| 20260505000454 | 69 | 68 | 0.9 | 2.6 | 0.00 | 0.00 | 0.00 | 71 | 1018.2 |
| 20260504235950 | 69 | 51 | 0.9 | 1.7 | 0.00 | 0.00 | 0.00 | 70 | 1018.0 |
| 20260504235448 | 69 | 74 | 0.9 | 1.7 | 0.00 | 0.00 | 0.00 | 68 | 1017.8 |
| 20260504234944 | 69 | 84 | 0.0 | 0.9 | 0.00 | 0.00 | 0.00 | 71 | 1017.7 |
| 20260504234441 | 70 | 102 | 1.7 | 2.6 | 0.00 | 0.00 | 0.00 | 69 | 1017.6 |
| 20260504233938 | 70 | 91 | 1.7 | 3.5 | 0.00 | 0.00 | 0.00 | 69 | 1017.6 |
| 20260504233433 | 70 | 65 | 4.3 | 6.1 | 0.00 | 0.00 | 0.00 | 67 | 1017.5 |
| 20260504232931 | 70 | 87 | 2.6 | 2.6 | 0.00 | 0.00 | 0.00 | 69 | 1017.4 |
| 20260504232428 | 70 | 63 | 1.7 | 3.5 | 0.00 | 0.00 | 0.00 | 69 | 1017.3 |
| 20260504231925 | 70 | 89 | 1.7 | 5.2 | 0.00 | 0.00 | 0.00 | 68 | 1017.1 |
| 20260504231421 | 70 | 62 | 5.2 | 7.8 | 0.00 | 0.00 | 0.00 | 68 | 1017.2 |
| 20260504230917 | 71 | 59 | 1.7 | 2.6 | 0.00 | 0.00 | 0.00 | 68 | 1017.2 |
| 20260504230415 | 71 | 76 | 1.7 | 3.5 | 0.00 | 0.00 | 0.00 | 69 | 1017.1 |
| 20260504225913 | 71 | 84 | 0.0 | 0.9 | 0.00 | 0.00 | 0.00 | 69 | 1017.2 |
| 20260504225410 | 71 | 83 | 1.7 | 2.6 | 0.00 | 0.00 | 0.00 | 70 | 1017.1 |
| 20260504224907 | 71 | 76 | 1.7 | 3.5 | 0.00 | 0.00 | 0.00 | 70 | 1017.0 |
| 20260504224403 | 71 | 68 | 2.6 | 3.5 | 0.00 | 0.00 | 0.00 | 68 | 1017.0 |
| 20260504223901 | 71 | 65 | 3.5 | 5.2 | 0.00 | 0.00 | 0.00 | 68 | 1016.9 |
| 20260504223356 | 71 | 76 | 0.9 | 1.7 | 0.00 | 0.00 | 0.00 | 68 | 1016.9 |
| 20260504222852 | 71 | 53 | 1.7 | 2.6 | 0.00 | 0.00 | 0.00 | 68 | 1016.9 |
| 20260504222349 | 71 | 88 | 1.7 | 2.6 | 0.00 | 0.00 | 0.00 | 71 | 1016.9 |
| 20260504221848 | 72 | 30 | 1.7 | 5.2 | 0.00 | 0.00 | 0.00 | 71 | 1017.0 |
| 20260504221344 | 72 | 46 | 1.7 | 2.6 | 0.00 | 0.00 | 0.00 | 70 | 1016.9 |
| 20260504220842 | 72 | 65 | 3.5 | 5.2 | 0.00 | 0.00 | 0.00 | 67 | 1016.9 |
| 20260504220338 | 72 | 58 | 1.7 | 5.2 | 0.00 | 0.00 | 0.00 | 65 | 1016.9 |
| 20260504215835 | 72 | 62 | 3.5 | 6.1 | 0.00 | 0.00 | 0.00 | 63 | 1016.9 |
| 20260504215332 | 72 | 42 | 3.5 | 5.2 | 0.00 | 0.00 | 0.00 | 63 | 1017.0 |
| 20260504214828 | 72 | 81 | 1.7 | 3.5 | 0.00 | 0.00 | 0.00 | 67 | 1016.8 |
| 20260504214325 | 72 | 83 | 3.5 | 5.2 | 0.00 | 0.00 | 0.00 | 64 | 1017.1 |
| 20260504213821 | 72 | 68 | 0.9 | 1.7 | 0.00 | 0.00 | 0.00 | 64 | 1017.1 |
| 20260504213317 | 72 | 38 | 3.5 | 6.1 | 0.00 | 0.00 | 0.00 | 64 | 1017.1 |
| 20260504212815 | 72 | 56 | 2.6 | 2.6 | 0.00 | 0.00 | 0.00 | 63 | 1017.2 |
| 20260504212311 | 72 | 97 | 0.9 | 2.6 | 0.00 | 0.00 | 0.00 | 67 | 1017.1 |
| 20260504211809 | 73 | 54 | 1.7 | 2.6 | 0.00 | 0.00 | 0.00 | 64 | 1017.1 |
| 20260504211304 | 73 | 45 | 3.5 | 3.5 | 0.00 | 0.00 | 0.00 | 61 | 1017.1 |
| 20260504210802 | 73 | 92 | 0.9 | 1.7 | 0.00 | 0.00 | 0.00 | 60 | 1017.0 |
| 20260504210259 | 74 | 89 | 0.0 | 0.9 | 0.00 | 0.00 | 0.00 | 60 | 1017.0 |
| 20260504205756 | 75 | 93 | 0.9 | 1.7 | 0.00 | 0.00 | 0.00 | 56 | 1017.0 |
| 20260504205254 | 76 | 77 | 1.7 | 1.7 | 0.00 | 0.00 | 0.00 | 58 | 1017.0 |
| 20260504204752 | 76 | 111 | 0.9 | 1.7 | 0.00 | 0.00 | 0.00 | 53 | 1017.3 |
| 20260504204250 | 75 | 73 | 0.9 | 0.9 | 0.00 | 0.00 | 0.00 | 57 | 1017.3 |
| 20260504203749 | 75 | 114 | 2.6 | 3.5 | 0.00 | 0.00 | 0.00 | 54 | 1017.2 |
| 20260504203246 | 75 | 99 | 1.7 | 1.7 | 0.00 | 0.00 | 0.00 | 56 | 1017.2 |
| 20260504202741 | 75 | 84 | 0.9 | 1.7 | 0.00 | 0.00 | 0.00 | 57 | 1017.3 |
| 20260504202238 | 74 | 71 | 0.9 | 1.7 | 0.00 | 0.00 | 0.00 | 57 | 1017.3 |
| 20260504201736 | 74 | 95 | 1.7 | 1.7 | 0.00 | 0.00 | 0.00 | 57 | 1017.4 |
| 20260504201233 | 75 | 70 | 0.0 | 0.9 | 0.00 | 0.00 | 0.00 | 57 | 1017.2 |
| 20260504200731 | 78 | 82 | 2.6 | 3.5 | 0.00 | 0.00 | 0.00 | 49 | 1017.5 |
| 20260504200226 | 79 | 80 | 0.9 | 0.9 | 0.00 | 0.00 | 0.00 | 51 | 1017.4 |
| 20260504195723 | 79 | 124 | 0.9 | 1.7 | 0.00 | 0.00 | 0.00 | 49 | 1017.3 |
| 20260504195219 | 77 | 86 | 0.9 | 0.9 | 0.00 | 0.00 | 0.00 | 52 | 1017.2 |
| 20260504194716 | 78 | 100 | 0.9 | 1.7 | 0.00 | 0.00 | 0.00 | 43 | 1017.3 |
| 20260504194212 | 78 | 118 | 0.9 | 0.9 | 0.00 | 0.00 | 0.00 | 49 | 1017.3 |
| 20260504193709 | 78 | 102 | 0.9 | 1.7 | 0.00 | 0.00 | 0.00 | 50 | 1017.5 |
| 20260504193206 | 77 | 93 | 0.9 | 0.9 | 0.00 | 0.00 | 0.00 | 55 | 1017.5 |
| 20260504192704 | 77 | 81 | 0.0 | 0.9 | 0.00 | 0.00 | 0.00 | 49 | 1017.5 |
| 20260504192202 | 77 | 71 | 0.9 | 0.9 | 0.00 | 0.00 | 0.00 | 52 | 1017.6 |
| 20260504191701 | 76 | 89 | 0.9 | 1.7 | 0.00 | 0.00 | 0.00 | 52 | 1018.0 |
| 20260504191156 | 75 | 80 | 1.7 | 2.6 | 0.00 | 0.00 | 0.00 | 54 | 1017.7 |
| 20260504190652 | 75 | 103 | 2.6 | 2.6 | 0.00 | 0.00 | 0.00 | 54 | 1017.9 |
| 20260504190149 | 74 | 83 | 2.6 | 2.6 | 0.00 | 0.00 | 0.00 | 55 | 1017.9 |
| 20260504185645 | 74 | 95 | 0.9 | 2.6 | 0.00 | 0.00 | 0.00 | 55 | 1018.1 |
| 20260504185141 | 75 | 97 | 1.7 | 2.6 | 0.00 | 0.00 | 0.00 | 54 | 1018.1 |
| 20260504184638 | 75 | 94 | 1.7 | 1.7 | 0.00 | 0.00 | 0.00 | 55 | 1018.2 |
| 20260504184132 | 76 | 82 | 0.9 | 1.7 | 0.00 | 0.00 | 0.00 | 54 | 1018.2 |
| 20260504183630 | 74 | 83 | 1.7 | 1.7 | 0.00 | 0.00 | 0.00 | 54 | 1018.4 |
| 20260504183127 | 74 | 100 | 0.0 | 0.9 | 0.00 | 0.00 | 0.00 | 58 | 1018.4 |
| 20260504182625 | 74 | 41 | 0.9 | 1.7 | 0.00 | 0.00 | 0.00 | 58 | 1018.5 |
| 20260504182122 | 74 | 104 | 1.7 | 2.6 | 0.00 | 0.00 | 0.00 | 57 | 1018.7 |
| 20260504181620 | 73 | 79 | 0.0 | 0.9 | 0.00 | 0.00 | 0.00 | 62 | 1018.8 |
| 20260504181117 | 73 | 77 | 0.9 | 1.7 | 0.00 | 0.00 | 0.00 | 60 | 1018.7 |
| 20260504180616 | 74 | 103 | 1.7 | 1.7 | 0.00 | 0.00 | 0.00 | 55 | 1018.8 |
| 20260504180115 | 73 | 95 | 1.7 | 2.6 | 0.00 | 0.00 | 0.00 | 58 | 1018.7 |
| 20260504175611 | 73 | 79 | 0.9 | 1.7 | 0.00 | 0.00 | 0.00 | 59 | 1018.9 |
| 20260504175108 | 73 | 77 | 0.9 | 1.7 | 0.00 | 0.00 | 0.00 | 57 | 1018.9 |
| 20260504174606 | 73 | 59 | 1.7 | 2.6 | 0.00 | 0.00 | 0.00 | 58 | 1019.0 |
| 20260504174102 | 72 | 66 | 0.0 | 0.9 | 0.00 | 0.00 | 0.00 | 57 | 1019.0 |
| 20260504173559 | 73 | 70 | 0.9 | 0.9 | 0.00 | 0.00 | 0.00 | 58 | 1019.0 |
| 20260504173057 | 73 | 63 | 1.7 | 2.6 | 0.00 | 0.00 | 0.00 | 57 | 1019.3 |
| 20260504172553 | 73 | 78 | 0.9 | 0.9 | 0.00 | 0.00 | 0.00 | 63 | 1019.3 |
| 20260504172050 | 73 | 61 | 0.0 | 0.9 | 0.00 | 0.00 | 0.00 | 59 | 1019.3 |
| 20260504171546 | 73 | 69 | 0.0 | 0.0 | 0.00 | 0.00 | 0.00 | 59 | 1019.4 |
| 20260504171044 | 73 | 66 | 0.0 | 0.9 | 0.00 | 0.00 | 0.00 | 57 | 1019.4 |
| 20260504170539 | 73 | 100 | 0.0 | 0.9 | 0.00 | 0.00 | 0.00 | 58 | 1019.5 |
| 20260504150923 | 72 | 57 | 0.0 | 0.9 | 0.00 | 0.00 | 0.00 | 55 | 1020.5 |
| 20260504150420 | 71 | 70 | 0.9 | 0.9 | 0.00 | 0.00 | 0.00 | 57 | 1020.6 |
| 20260504140846 | 70 | 84 | 1.7 | 1.7 | 0.00 | 0.00 | 0.00 | 59 | 1020.6 |
| 20260504140342 | 69 | 146 | 0.9 | 0.9 | 0.00 | 0.00 | 0.00 | 62 | 1020.6 |